Location: Zagreb
(45.8000°N, 16.0000°E)
Time: 00:54:45
(UTC+01:00)

Transit 2A Rocket - Pass Details

Date: 05 October 2020
Orbit: 586 x 916 km, 66.7° (Epoch: 28 October)

Event Time Altitude Azimuth Distance (km) Brightness Sun altitude
Rises 00:50:36 0° 327° (NNW) 3,412 8.8 -49.0°
Enters shadow 00:51:38 - 327° (NNW) 3,017 8.5 -49.0°
Reaches altitude 10° 00:53:10 10° 328° (NNW) 2,427 - -49.0°
Maximum altitude 00:58:46 84° 57° (ENE) 777 - -48.9°
Drops below altitude 10° 01:03:47 10° 146° (SE) 2,188 - -48.8°
Sets 01:06:00 0° 147° (SSE) 3,053 - -48.7°
